This is the latest recevied weather packets stored in our database for station/object N4QB-13. If no packets are shown the sender has not sent any weather packets the latest 10 day(s).
| Time | Temp. | Humidity | Pressure | Rain* | Wind** | Luminosity | Snow |
|---|---|---|---|---|---|---|---|
| 1777390275 | 23.33° C | 73% | 1019.4 hPa | 0 mm | - | 33 W/m² | - |
| 1777389971 | 23.33° C | 75% | 1019.6 hPa | 0 mm | - | 33 W/m² | - |
| 1777389668 | 22.78° C | 76% | 1019.5 hPa | 0 mm | - | 32 W/m² | - |
| 1777389364 | 22.78° C | 77% | 1019.5 hPa | 0 mm | - | 39 W/m² | - |
| 1777389062 | 22.78° C | 78% | 1019.7 hPa | 0 mm | - | 43 W/m² | - |
| 1777388759 | 22.22° C | 79% | 1019.7 hPa | 0 mm | - | 33 W/m² | - |
| 1777388456 | 22.22° C | 80% | 1019.6 hPa | 0 mm | - | 31 W/m² | - |
| 1777388155 | 22.22° C | 81% | 1019.5 hPa | 0 mm | - | 30 W/m² | - |
| 1777387851 | 21.67° C | 82% | 1019.8 hPa | 0 mm | - | 30 W/m² | - |
| 1777387549 | 21.67° C | 82% | 1019.9 hPa | 0 mm | - | 29 W/m² | - |
| 1777387244 | 21.11° C | 83% | 1019.9 hPa | 0 mm | - | 29 W/m² | - |
| 1777386939 | 21.11° C | 84% | 1019.9 hPa | 0 mm | - | 29 W/m² | - |
| 1777386637 | 21.67° C | 85% | 1019.9 hPa | 0 mm | - | 41 W/m² | - |
| 1777386333 | 21.11° C | 86% | 1020.1 hPa | 0 mm | - | 44 W/m² | - |
| 1777386031 | 20.56° C | 87% | 1019.9 hPa | 0 mm | - | 33 W/m² | - |
| 1777385728 | 20° C | 87% | 1019.6 hPa | 0 mm | - | 31 W/m² | - |
| 1777385425 | 20° C | 88% | 1019.5 hPa | 0 mm | - | 152 W/m² | - |
| 1777385121 | 20° C | 88% | 1019.8 hPa | 0 mm | - | 41 W/m² | - |
| 1777384817 | 19.44° C | 89% | 1019.8 hPa | 0 mm | - | 29 W/m² | - |
| 1777384514 | 19.44° C | 89% | 1020 hPa | 0 mm | - | 26 W/m² | - |
| 1777384209 | 18.89° C | 90% | 1019.7 hPa | 0 mm | - | 25 W/m² | - |
| 1777383905 | 18.89° C | 90% | 1019.8 hPa | 0 mm | - | 34 W/m² | - |
| 1777383601 | 18.89° C | 91% | 1019.5 hPa | 0 mm | - | 36 W/m² | - |
| 1777383298 | 18.89° C | 91% | 1019.4 hPa | 0 mm | - | 65 W/m² | - |
| 1777382994 | 18.89° C | 91% | 1019.5 hPa | 0 mm | - | 60 W/m² | - |
* Rain latest hour (hover to see other rain measurements)
** Current wind speed in m/s (hover to see current wind gust speed)